星链-5733 (STARLINK-5733 )

导读 | 星芒AI

STARLINK-5733 是 SpaceX Starlink 卫星互联网项目中的一颗低轨道卫星,属于第 12 批组网卫星(Batch 12)。该卫星于 2021 年 10 月 31 日由猎鹰 9 号火箭从肯尼迪航天中心发射升空,部署在约 540 公里的轨道高度。Starlink 项目旨在通过大规模卫星群提供全球高速互联网服务,尤其关注偏远地区。STARLINK-5733 与其他 Starlink 卫星协同工作,支持宽带通信,提升全球网络覆盖与连接效率。

基本信息
目录编号:
56925
目录名称:
STARLINK-5733
国际标识:
2023-083BB
轨道中心:
EARTH
卫星名称:
星链-5733
卫星全名:
星链-5733 (STARLINK-5733 )
卫星状态:
在轨 (已飞行923 天)
发射日期:
2023-06-12 UTC
国别 :
美国 (US)
星等 :
--
轨道信息
数据来源 国际轨道数据 AOE轨道数据
星历时间 2025-12-21T10:44:18+0800
11小时前
查看轨道信息
2025-12-21T12:00:00+0800
10小时前
查看轨道信息
半长轴 6937.209km 6937.174km
偏心率 0.0001453 0.0001524
轨道倾角 43.003° 43.002°
近地点辐角 263.051° 265.190°
升交点赤经 135.466° 135.182°
平近点角 97.017° 19.538°
近地点 558.064km 557.979km
远地点 560.08km 560.095km
周期 95.838分钟 95.837分钟
每日圈数 15.025387 15.025501
详细信息
固有亮度:
5
最大亮度:
2.4
卫星平台:
Starlink v1.5
覆盖范围:
全球
运营商:
太空探索技术公司
运营商所在国:
美国
制造商(研发单位):
太空探索技术公司
制造商所在国:
美国
使用方式:
暂无
卫星简介
星链(Starlink)计划是由太空探索技术公司(SpaceX)提出的一个巨型低轨卫星互联网星座项目,计划在2019年至2024年间在太空搭建由约1.2万颗卫星组成的“星链”网络,其中1584颗将部署在地球上空550千米处的近地轨道,并从2020年开始工作。该卫星仍在工作。
2D轨道图
3D轨道图
轨道高度分析图
轨道倾角分析图
轨道综合分析图
查看轨道综合分析图